Location: De Greiden
(52.9496°N, 5.9137°E)
Time: 23:32:58
(UTC+00:00)

Cosmos 1898 Rocket - Pass Details

Date: 24 January 2021
Orbit: 754 x 783 km, 74.0° (Epoch: 01 March)

Event Time Altitude Azimuth Distance (km) Brightness Sun altitude
Rises 17:33:07 0° 173° (S) 3,236 6.8 -12.8°
Reaches altitude 10° 17:35:42 10° 164° (SSE) 2,309 6.0 -13.2°
Maximum altitude 17:40:18 32° 102° (ESE) 1,304 4.2 -13.9°
Enters shadow 17:43:13 19° 53° (NE) 1,780 4.9 -14.3°
